Theta_e
305 305 304 304 304 304 304 304 305 304 304 304 305 305 305 305 305 304 302 303 305 303 303 306 307 308 308 308 308 308 305 301 303 307 307 306 308 312 313 312 309 309 310 311 313 313 312 312 314 314 313 314 315 313 313 316 319 319 320 322 323 323 322 323 323 324 325 325 324 321 320 322 321 317 315 315 315 318 318 318 321 324 327 328 329 329 329 333
304 304 304 304 304 304 304 304 305 305 305 304 305 305 304 304 303 303 301 301 303 301 302 307 307 307 308 308 308 306 303 302 305 307 306 306 308 311 311 309 307 308 311 312 313 314 313 311 314 314 311 313 314 314 313 315 319 318 319 322 322 323 322 321 322 323 324 324 323 320 320 321 320 319 317 318 319 318 319 319 319 321 325 330 331 330 331 334
304 304 304 304 304 304 304 304 304 305 305 305 305 305 305 305 303 303 302 300 301 299 302 307 307 307 308 307 306 304 302 303 306 306 304 306 307 308 308 307 307 309 311 312 314 314 314 314 315 313 311 312 314 316 315 315 318 318 319 321 321 322 321 320 321 323 323 322 323 321 319 321 320 318 318 319 320 320 319 319 319 320 321 327 330 330 333 334
303 304 304 304 304 304 304 304 303 303 304 305 305 305 306 305 303 303 302 300 299 298 303 307 307 307 308 306 304 303 302 303 306 305 304 305 305 306 307 306 307 308 311 313 313 313 313 314 314 312 312 312 315 317 316 316 317 318 318 318 319 320 320 320 320 322 321 321 322 321 320 321 319 317 318 319 321 322 321 319 320 322 321 324 329 330 333 334
303 304 304 303 303 304 304 304 304 303 303 304 305 305 306 306 305 303 301 300 299 299 305 307 307 307 306 304 303 303 302 302 305 305 303 304 305 306 306 307 306 308 311 313 313 313 313 314 313 313 312 311 315 317 316 317 317 318 318 318 319 318 319 319 318 319 318 319 321 321 321 320 318 317 318 318 321 321 319 319 318 319 318 320 327 330 332 333
304 304 304 304 304 304 304 303 303 303 302 304 305 306 305 306 304 301 300 300 299 300 306 308 307 306 304 303 303 304 303 303 305 304 303 303 305 306 306 307 306 307 310 312 314 314 313 314 312 312 312 312 315 316 317 318 317 318 319 318 319 318 318 319 318 317 316 319 321 320 319 317 318 318 316 318 319 319 318 321 320 320 320 322 328 331 330 331
304 304 304 304 304 304 304 303 304 303 302 304 305 305 305 304 302 299 299 299 299 302 305 308 307 304 303 303 303 305 304 304 304 303 303 303 305 306 305 306 307 307 309 311 313 314 313 313 312 312 312 313 317 317 316 317 316 318 319 318 318 318 318 318 319 317 316 318 320 320 318 317 319 318 317 317 317 318 321 327 326 326 327 328 331 330 330 331
304 303 304 304 303 303 303 303 303 303 303 304 304 304 304 302 300 299 299 299 301 302 305 307 305 303 303 302 304 305 303 303 303 303 303 303 305 306 305 306 308 307 308 310 311 314 313 313 313 312 312 313 317 317 315 316 317 318 318 318 318 317 317 318 319 318 318 316 317 322 320 317 317 317 317 315 313 314 319 326 328 330 331 331 330 330 330 331
303 303 303 303 302 302 303 303 303 304 304 304 303 302 302 300 300 300 300 301 302 303 306 307 304 303 303 303 305 304 303 303 303 303 303 303 304 306 306 306 308 307 309 309 310 313 313 313 314 313 314 314 315 316 315 316 317 317 317 318 318 316 316 318 321 321 320 317 317 321 320 316 315 316 316 313 311 313 316 320 323 327 329 330 330 329 330 330
303 303 303 303 302 302 303 304 304 303 302 301 300 300 300 300 301 301 302 302 303 305 307 305 303 303 303 304 305 303 303 303 303 303 303 302 304 306 306 306 307 307 309 310 310 312 312 312 314 314 314 315 314 314 315 316 316 316 316 317 315 314 314 314 319 322 320 320 319 319 320 318 315 316 315 312 311 312 315 317 318 321 324 328 330 330 331 331
304 303 303 303 303 303 304 304 303 302 300 299 299 299 300 301 302 302 302 303 304 305 306 304 303 303 303 304 304 303 303 303 303 303 303 302 303 305 306 306 306 306 308 309 310 310 310 312 313 314 314 314 314 314 314 315 315 315 316 315 313 313 313 312 315 319 319 321 321 319 320 319 316 314 312 310 310 312 314 314 315 317 317 321 327 329 330 331
304 303 303 303 303 304 304 303 301 300 299 299 300 301 301 301 302 302 302 303 303 304 304 303 303 303 304 304 303 303 303 303 303 303 303 303 303 304 305 305 306 306 306 309 310 309 309 311 313 314 314 313 313 312 313 313 313 315 315 315 314 314 314 312 312 314 316 318 319 317 319 320 317 313 310 310 311 312 313 312 312 313 313 314 319 321 322 325
303 303 303 303 303 304 304 302 300 299 299 300 301 301 301 301 302 302 302 303 303 303 304 303 303 303 304 304 302 303 303 303 303 303 303 303 303 304 305 306 307 306 305 307 309 309 308 310 312 314 314 314 312 311 311 311 312 314 314 315 316 316 315 311 311 313 314 314 315 317 320 320 316 312 310 310 310 312 312 312 312 312 312 312 313 314 314 316
303 303 303 302 303 304 302 300 299 299 299 301 301 301 301 301 302 302 302 303 303 303 303 303 302 303 304 303 302 303 302 302 303 303 302 303 303 305 306 306 307 306 306 306 308 308 308 309 312 315 314 313 313 313 312 311 312 313 313 314 315 316 314 311 310 313 315 313 313 317 320 317 313 311 310 309 310 311 312 311 311 311 311 311 311 312 311 311
302 303 303 303 303 303 301 299 299 299 301 301 301 301 300 300 300 302 303 303 303 302 302 302 302 303 304 303 303 302 302 302 303 302 302 302 303 305 306 306 306 307 307 307 307 308 308 310 312 313 313 312 312 313 312 311 312 311 311 313 314 315 313 310 310 311 314 314 314 318 320 315 311 311 309 309 310 310 311 311 310 310 310 311 311 311 311 311
302 302 303 303 303 302 300 299 299 299 301 301 301 301 300 300 299 301 303 303 304 303 302 301 302 303 303 302 302 302 302 302 302 302 301 302 303 304 304 306 307 307 307 307 308 308 308 310 310 310 311 312 312 312 312 312 312 311 312 313 315 314 312 311 310 310 311 313 314 316 317 314 311 310 309 309 310 310 310 309 309 310 309 310 310 310 310 309
302 302 302 302 302 301 300 299 299 299 301 301 302 301 301 300 299 299 301 302 303 304 303 301 301 303 303 302 302 302 301 302 302 301 301 302 303 303 304 307 308 307 308 308 307 308 308 309 309 309 311 312 311 311 312 312 312 312 314 314 314 313 312 312 311 309 310 312 313 313 313 311 311 309 308 309 309 311 311 310 309 309 309 309 309 309 308 308
302 302 301 300 300 301 300 299 299 299 300 301 301 301 301 301 300 299 299 300 302 304 303 301 301 302 303 302 301 301 301 301 302 301 301 303 303 303 304 306 307 307 308 307 307 308 308 308 309 310 311 311 310 310 310 312 313 314 315 314 313 313 313 312 312 309 309 312 312 312 311 310 309 308 308 308 308 311 312 311 309 308 308 307 307 307 307 307
302 300 299 299 300 300 300 299 299 299 299 300 300 301 300 301 302 300 299 300 300 301 301 300 301 301 301 301 301 301 301 301 302 301 302 303 303 304 304 305 306 308 308 307 307 307 308 308 309 310 311 312 312 311 311 313 314 314 314 314 314 313 312 311 310 308 308 311 311 311 311 309 308 307 306 307 307 308 309 309 308 307 306 306 306 306 306 306
301 299 299 300 300 300 300 299 299 299 300 299 299 300 300 303 304 301 301 302 300 300 300 300 301 301 300 300 301 300 301 302 302 302 302 302 304 305 305 306 307 307 307 307 307 306 307 309 309 310 310 310 310 310 312 312 312 313 313 313 313 312 311 310 310 308 307 309 311 310 309 307 307 306 305 305 305 305 305 306 305 305 305 305 305 305 305 305
301 299 299 299 299 300 300 300 299 299 300 299 300 302 302 303 303 301 302 303 300 298 299 299 300 300 299 300 300 299 301 302 302 302 301 302 305 305 305 306 307 306 305 306 308 307 308 309 309 308 307 306 306 308 310 311 310 311 311 312 311 311 310 308 309 308 308 310 310 309 308 306 306 305 305 304 303 303 303 303 303 303 304 303 304 304 304 304
299 298 299 299 299 300 299 299 299 299 299 299 301 302 301 301 301 300 301 303 302 298 298 299 300 300 300 300 299 298 301 301 301 302 300 302 305 304 305 306 306 306 306 306 307 307 307 308 307 305 305 305 305 307 308 309 310 310 310 310 310 311 309 308 308 309 309 310 309 308 307 307 305 304 304 303 302 302 302 302 303 303 303 303 303 303 303 303
298 298 298 299 299 300 300 299 299 299 299 300 301 301 301 300 300 300 301 302 302 300 298 298 300 300 300 300 298 298 302 301 300 301 300 302 304 303 305 306 306 306 307 307 307 307 307 307 305 303 304 306 307 309 308 308 310 310 309 309 309 310 309 309 308 308 309 309 309 308 308 307 306 304 304 303 302 302 302 302 302 303 303 303 303 303 303 303
298 297 298 298 299 300 300 299 299 300 300 300 300 300 300 301 300 300 301 300 299 299 298 298 299 300 299 299 298 299 302 301 300 300 300 302 303 303 303 304 306 306 306 307 307 307 307 305 303 304 306 308 309 309 309 309 309 310 310 309 309 309 309 309 308 308 308 309 309 309 309 307 305 305 304 303 302 302 302 302 303 303 303 303 303 303 303 303
298 298 298 298 299 300 300 300 299 299 300 300 300 299 300 300 300 300 300 298 297 297 298 298 300 300 298 298 298 299 300 301 300 300 300 301 302 303 303 302 304 306 306 308 307 306 306 303 303 306 308 308 308 308 308 309 308 309 309 309 309 309 310 310 308 308 308 309 308 309 311 309 305 304 304 302 302 302 303 303 302 303 303 303 303 303 303 303
298 298 298 298 299 299 300 301 300 299 300 300 300 299 299 299 299 298 297 297 296 296 298 299 299 299 298 298 298 299 301 300 300 300 300 300 301 302 303 302 304 305 305 307 307 306 305 303 304 308 309 308 309 308 307 308 308 309 309 308 308 309 311 310 308 308 309 309 308 308 311 310 306 304 303 302 302 302 303 303 302 303 303 303 302 302 302 302
299 298 298 298 298 299 300 300 299 299 301 300 299 299 299 299 298 298 297 296 296 296 297 299 299 298 298 298 298 300 300 299 299 300 299 300 301 303 302 302 303 303 303 304 306 305 304 304 305 307 308 308 308 308 307 307 309 310 308 308 309 311 313 312 309 309 309 309 309 309 310 309 306 305 303 302 302 302 302 302 302 302 302 302 302 302 302 302
299 298 298 298 298 298 299 299 299 299 299 298 298 298 298 298 297 298 298 296 295 296 297 298 298 298 297 298 298 299 298 298 299 300 299 300 301 303 302 301 302 302 303 305 305 304 304 305 304 305 307 307 307 307 305 306 309 309 307 308 310 311 313 313 310 309 309 310 310 309 309 309 306 304 302 302 302 302 302 302 302 302 302 302 301 301 301 301
299 298 298 298 297 297 298 298 298 298 297 297 297 298 298 297 296 297 297 296 294 295 297 298 298 298 297 299 299 299 298 298 298 298 299 300 301 302 301 300 301 301 302 303 303 303 303 303 303 304 305 305 304 305 304 305 308 307 306 308 309 309 310 310 309 308 309 310 309 308 308 308 305 302 301 302 302 302 302 302 302 302 301 301 301 301 301 300
299 298 297 297 297 297 297 297 297 296 296 296 297 297 296 295 297 297 297 296 295 295 297 298 298 297 297 298 299 299 298 298 298 298 300 300 300 301 300 299 301 301 302 301 301 302 301 302 303 302 301 302 302 304 304 304 305 305 306 308 307 307 308 307 307 307 308 309 307 306 307 307 305 302 300 301 301 301 302 302 302 302 301 301 301 300 300 300
298 298 297 297 297 297 297 297 296 296 296 296 296 296 296 296 297 297 297 295 294 296 297 297 298 297 296 297 298 298 298 298 298 298 299 299 300 300 299 300 301 301 302 301 301 301 301 301 302 301 300 301 303 305 305 305 306 306 307 308 306 306 306 304 305 306 308 308 306 305 304 305 305 302 299 300 300 300 301 302 302 302 301 301 301 300 300 299
299 298 297 297 297 296 296 297 296 296 296 295 294 296 299 298 296 295 296 295 294 296 297 297 297 297 296 297 297 297 298 297 297 298 298 299 299 299 299 299 300 301 300 300 301 300 300 300 300 301 300 300 303 306 306 306 307 306 306 306 305 305 304 304 303 304 306 306 304 304 304 303 302 300 299 300 300 300 301 301 301 301 302 301 301 300 299 299
299 298 297 296 296 296 296 296 296 296 296 294 295 299 300 297 294 294 295 295 295 295 296 296 296 296 296 297 297 297 297 297 297 297 298 299 299 299 299 298 299 301 300 300 301 300 300 300 300 301 301 299 301 305 306 306 306 306 306 305 303 302 302 303 301 301 305 306 304 303 304 304 301 299 299 300 300 300 300 301 301 301 301 301 301 300 299 299
298 298 297 296 296 296 296 296 296 296 295 295 299 302 300 295 294 294 295 296 296 296 296 296 295 295 296 296 296 296 297 297 297 297 298 299 299 299 299 299 299 299 300 299 299 299 300 300 299 300 300 299 299 301 302 304 305 305 305 305 305 304 304 303 302 303 306 306 304 303 305 305 302 300 299 299 300 300 300 300 301 301 301 301 301 300 299 298
298 298 297 296 296 296 296 296 296 296 296 297 299 300 297 294 292 293 295 297 297 297 297 296 294 296 297 296 296 297 297 297 297 296 297 298 298 298 298 298 298 298 300 299 298 299 299 299 299 299 298 298 299 299 299 302 305 304 304 307 307 306 306 305 304 305 306 306 305 305 305 303 300 299 299 299 300 300 300 300 300 300 301 301 301 300 299 298
298 298 297 296 296 296 296 297 296 296 297 300 300 297 295 294 293 294 296 297 297 296 297 296 294 296 298 296 297 298 297 297 297 297 297 296 297 298 298 298 298 298 299 299 298 300 300 298 298 299 299 298 297 299 300 301 304 304 305 306 305 304 305 305 304 303 304 306 306 305 304 301 300 301 300 300 300 300 299 299 299 300 300 300 301 301 299 298
297 297 297 295 296 296 296 296 296 297 298 300 299 295 294 294 295 296 296 296 296 295 296 296 295 296 297 297 297 298 298 297 297 297 297 296 296 297 298 298 298 298 297 298 299 299 299 298 297 298 299 298 298 300 301 301 302 304 303 303 303 302 302 303 303 302 303 306 304 302 303 301 302 303 300 299 300 299 299 299 299 299 299 299 300 301 299 297
296 297 297 295 296 296 296 296 296 297 299 299 297 295 294 295 294 294 295 295 295 295 296 297 296 296 297 297 297 297 297 298 297 295 295 297 296 297 297 297 298 299 298 298 299 298 298 298 297 298 298 298 299 301 301 300 301 302 301 300 302 303 303 303 303 302 302 303 302 301 301 300 301 301 300 300 300 299 299 299 298 298 297 298 299 300 299 297
296 299 299 296 295 296 296 296 296 298 299 298 297 295 294 295 294 292 292 293 294 296 297 296 295 296 296 296 297 297 296 297 297 296 296 297 296 297 297 297 298 299 298 298 299 297 297 298 297 298 299 299 299 300 299 299 300 301 300 300 301 302 303 303 301 301 301 300 300 300 300 300 300 299 299 299 299 299 299 298 298 297 296 296 298 300 299 297
295 301 301 295 295 297 296 296 297 298 298 295 294 293 291 294 295 292 290 292 294 296 297 296 295 296 297 296 296 296 296 296 297 296 297 297 297 297 297 296 296 298 298 298 298 298 297 297 298 299 299 299 299 298 298 299 300 300 300 300 300 300 300 300 299 300 300 298 299 298 297 300 299 298 299 299 298 299 298 298 298 296 295 295 296 299 299 296
296 303 301 295 296 296 297 300 296 292 293 292 292 292 291 294 296 294 292 292 294 295 295 296 296 296 297 296 296 296 296 296 296 296 297 297 297 298 297 295 295 297 298 298 298 298 297 297 299 299 300 300 299 297 296 297 298 299 299 299 299 299 298 298 298 298 298 298 298 296 297 300 299 297 298 298 298 298 298 298 298 296 294 294 295 298 298 295
299 302 299 295 296 296 299 300 292 287 292 294 292 293 294 295 296 295 294 292 294 295 295 295 296 296 296 296 296 295 295 296 296 296 296 296 297 297 296 295 296 297 297 297 298 297 295 295 298 299 298 298 297 295 293 294 297 298 298 298 298 298 298 298 298 297 298 297 296 296 297 299 298 297 298 298 297 298 297 298 297 296 294 293 294 297 297 294
302 300 296 295 296 296 299 299 293 291 293 292 290 291 292 294 295 296 295 294 295 296 296 296 295 295 296 296 296 296 295 295 295 296 295 295 296 296 295 296 297 298 297 296 297 297 295 294 296 297 297 297 297 295 293 294 297 298 298 298 298 298 299 299 298 298 298 297 297 297 297 298 298 297 297 297 297 297 297 297 297 296 294 292 293 296 296 292
300 298 297 296 294 298 301 300 297 295 293 292 293 293 292 292 295 296 296 296 296 296 297 297 295 295 296 295 295 297 296 295 295 295 295 295 295 296 295 296 297 297 297 296 297 297 296 295 295 295 296 296 297 297 296 296 298 298 297 297 298 298 297 298 297 297 297 297 297 297 297 298 298 296 297 297 296 296 296 297 297 296 294 292 293 295 295 291
298 297 298 296 293 296 297 294 295 296 294 296 298 297 295 295 295 295 296 296 294 294 296 296 295 296 295 294 295 297 297 295 294 295 295 294 295 296 295 295 296 296 296 296 296 296 296 295 294 294 293 293 294 295 296 297 298 298 297 296 297 297 297 297 297 297 296 296 296 297 297 298 297 296 297 297 296 295 295 296 297 295 293 291 292 295 294 291
300 299 299 298 293 292 290 288 292 296 295 297 297 294 295 296 295 294 295 295 294 295 295 295 295 295 295 295 297 297 296 294 293 294 295 295 295 295 294 294 295 295 296 296 294 294 295 294 293 294 295 295 295 295 296 297 298 297 297 296 297 297 297 297 297 297 296 296 297 298 298 298 297 297 298 297 296 295 295 296 296 295 292 291 292 294 293 290
299 298 295 297 296 294 293 290 292 295 294 295 295 293 295 296 295 295 295 294 294 294 295 295 295 295 295 295 295 295 295 294 294 295 295 294 295 294 293 294 294 294 295 295 294 294 295 295 293 294 296 296 296 296 296 296 297 297 297 297 296 296 296 297 297 297 296 297 298 298 297 297 298 298 298 297 296 294 294 295 295 293 291 290 291 293 292 289
297 294 289 292 295 296 295 294 293 294 294 293 292 293 295 295 294 296 295 294 294 294 295 295 295 295 295 295 295 295 295 295 294 295 295 294 294 294 294 294 294 293 294 294 294 294 295 296 294 294 296 295 295 295 295 295 296 296 297 297 297 297 296 297 297 296 296 297 298 297 297 297 297 297 297 296 295 294 294 295 294 292 291 290 291 293 291 289
293 293 289 290 292 292 292 293 292 294 295 294 293 295 297 297 296 295 294 294 294 294 294 295 295 294 293 293 293 294 294 293 292 294 295 294 293 293 294 295 294 292 292 294 294 293 294 296 295 294 295 295 294 294 294 295 296 297 297 296 297 297 296 296 296 296 296 297 297 297 297 297 297 297 297 296 294 293 294 294 293 291 290 290 290 292 290 289
295 295 294 292 292 290 290 291 292 295 295 294 295 296 296 297 297 294 293 294 294 294 294 294 294 293 292 292 293 293 294 293 292 294 294 293 293 293 293 294 294 293 292 293 293 293 294 295 295 294 295 296 295 295 295 295 296 297 296 296 296 296 295 295 295 295 296 296 296 296 296 297 297 297 296 294 293 293 294 294 292 290 290 290 290 291 290 288
293 293 293 296 296 293 292 291 292 296 297 295 295 295 294 296 296 294 293 293 293 295 294 294 293 292 290 292 293 293 293 293 294 294 294 293 293 293 292 292 292 292 292 293 293 294 294 294 294 295 297 297 295 295 296 295 294 294 294 294 294 295 294 295 294 295 295 295 295 295 296 297 297 295 294 293 292 293 293 293 291 290 290 289 290 290 289 288
292 291 292 296 297 292 292 293 292 294 295 295 295 294 295 295 294 293 293 292 292 294 293 292 292 291 291 292 293 293 292 292 293 292 291 291 291 291 291 291 291 291 291 292 292 293 295 295 295 296 298 297 295 294 294 293 294 295 295 294 294 294 295 295 295 295 296 296 296 297 298 298 296 294 294 293 292 292 292 292 291 290 289 289 289 290 289 288
Wind_Speed
18 19 19 19 20 20 19 19 18 18 17 17 18 18 18 18 19 20 19 20 20 22 22 22 22 22 21 20 20 21 25 24 11 6 8 12 19 20 20 16 12 15 13 11 10 8 7 5 3 4 4 4 4 4 6 6 4 5 6 9 9 9 9 8 9 6 1 1 4 1 2 3 6 3 2 3 2 1 2 1 1 2 2 2 2 3 2 8
18 19 19 20 20 20 20 19 19 19 18 17 17 18 18 18 18 19 20 20 20 22 22 22 22 22 21 19 20 23 25 17 6 5 10 17 22 21 20 14 12 15 12 10 8 5 5 4 4 5 4 5 3 5 7 6 7 7 7 8 10 9 7 6 8 6 2 2 5 2 3 2 4 2 1 1 3 2 1 2 1 0 2 5 3 3 6 9
19 20 20 20 20 20 20 19 18 18 17 18 17 17 18 18 18 19 19 20 21 22 21 20 21 21 20 20 22 24 19 8 2 6 15 21 21 20 18 12 12 14 10 9 9 5 5 5 4 4 4 5 4 5 7 6 7 7 6 9 9 9 7 4 5 5 1 1 5 3 3 2 3 1 0 1 4 4 4 4 2 3 3 2 5 4 7 9
20 20 20 20 20 20 20 19 18 17 16 17 17 17 18 18 18 19 19 20 21 21 20 20 21 21 19 21 23 20 11 2 3 10 18 22 18 18 17 12 13 12 8 8 6 3 4 4 3 3 3 5 4 5 7 7 6 5 6 8 5 9 7 4 2 1 3 2 3 2 2 2 2 2 1 3 2 5 7 5 4 5 7 4 5 5 7 9
20 20 20 20 20 20 19 19 19 17 15 15 16 17 17 18 18 18 18 20 21 20 18 19 20 19 20 21 18 14 5 3 7 14 21 23 17 17 16 13 14 11 7 6 3 2 3 3 2 3 3 5 6 6 7 7 4 4 5 1 3 7 7 5 4 2 2 2 1 1 1 1 1 1 3 5 4 5 7 6 6 6 8 6 2 6 7 8
20 20 20 20 20 19 19 18 18 18 14 14 17 17 17 17 17 17 17 19 20 18 17 17 18 19 20 18 13 12 5 0 9 17 21 23 18 15 15 14 15 12 5 2 2 2 1 2 3 3 3 4 6 6 4 4 3 4 4 3 4 2 4 5 5 4 1 1 2 3 3 2 2 1 3 5 7 8 8 7 7 7 7 6 2 5 5 6
20 21 20 20 20 18 18 18 18 18 15 14 17 17 17 17 16 16 16 19 18 15 15 15 17 18 18 15 9 8 6 5 13 19 20 21 17 13 14 15 14 14 7 1 1 1 1 0 2 2 3 3 3 2 1 3 3 4 3 4 2 3 4 3 4 5 4 4 5 3 5 3 4 2 4 7 10 11 10 8 6 6 6 6 5 4 1 1
21 21 20 20 20 18 17 18 18 18 16 15 16 17 17 15 15 15 16 17 15 13 13 13 15 17 16 12 6 3 6 10 17 20 19 20 17 12 11 12 12 14 10 5 5 1 1 1 2 2 3 2 1 0 0 4 5 4 3 5 2 4 4 3 4 5 7 5 4 2 3 3 4 3 4 9 12 11 9 8 7 6 7 8 8 6 5 3
21 21 21 21 20 18 17 18 18 17 17 16 16 16 15 15 15 15 15 14 12 12 13 13 13 15 13 7 3 2 7 15 18 18 19 18 17 10 8 8 10 14 10 6 6 1 0 1 1 2 2 3 1 0 1 4 3 3 4 4 4 5 4 4 3 3 6 4 4 5 3 5 4 2 4 9 14 11 8 10 11 10 10 9 8 7 5 3
21 21 20 21 21 19 18 18 18 17 17 16 16 16 16 16 14 14 13 12 12 13 13 12 12 13 10 5 4 4 10 19 18 18 20 18 15 9 7 5 5 12 10 6 6 3 3 1 1 2 0 3 1 1 2 2 1 3 4 5 5 6 6 4 3 3 3 2 4 5 5 6 7 3 3 10 14 10 8 12 13 13 11 9 8 7 5 4
21 21 20 20 21 21 19 19 18 18 17 17 17 16 15 14 13 13 13 13 13 12 10 10 11 12 6 4 6 6 15 23 18 19 22 18 14 9 8 5 1 8 10 6 5 3 3 1 0 2 1 2 2 3 3 2 1 2 4 7 7 7 8 9 4 4 2 2 2 3 5 7 8 6 5 12 13 7 7 12 12 12 10 8 8 6 6 6
20 21 20 19 20 20 19 19 19 19 18 18 17 15 14 14 14 13 12 12 11 10 10 9 11 10 5 2 5 10 20 24 19 22 25 21 16 8 8 7 2 4 9 7 3 3 2 0 2 2 1 1 4 4 4 2 0 1 4 8 9 7 8 11 5 1 0 2 2 5 4 6 9 7 9 12 11 7 9 13 13 12 11 10 9 7 8 9
19 21 21 19 19 19 19 20 20 19 18 15 14 13 14 16 16 12 11 12 12 11 9 10 12 8 4 2 4 15 24 24 21 24 26 24 17 7 6 7 1 4 8 10 5 5 4 0 2 1 2 1 2 3 3 1 1 3 3 5 9 8 6 11 8 4 0 4 0 7 4 4 7 8 11 11 12 9 13 15 14 13 12 11 10 10 11 13
19 19 21 20 19 18 19 21 21 18 14 12 13 14 17 19 18 12 9 11 14 16 12 12 14 7 3 2 4 18 26 23 23 25 27 26 19 11 9 7 2 5 8 10 5 4 5 1 1 1 1 1 2 1 4 3 0 4 4 3 5 6 4 7 9 6 2 4 2 7 4 5 7 9 11 12 12 10 16 15 15 14 12 12 12 12 12 14
19 18 19 20 19 18 21 22 21 15 10 11 13 16 19 23 23 14 9 8 9 16 18 15 14 6 2 3 7 23 28 25 25 26 28 26 18 11 12 10 3 5 6 6 2 3 6 2 1 1 1 1 1 3 6 5 2 2 4 5 4 5 4 3 9 10 3 4 2 4 5 7 8 9 10 11 10 12 17 15 16 15 15 14 13 13 13 14
19 18 18 19 18 19 22 23 21 12 6 8 11 14 18 23 27 19 11 8 5 11 18 19 15 7 3 5 13 23 25 23 24 26 27 24 14 9 15 12 3 3 2 1 1 2 6 4 1 2 2 1 3 4 6 5 4 0 1 5 5 6 7 2 4 10 7 2 6 5 6 6 6 8 10 9 8 14 17 16 17 16 16 15 13 13 13 14
18 18 17 17 17 18 22 24 20 10 2 3 5 8 12 16 25 27 18 11 7 6 10 20 19 5 2 9 15 17 20 24 24 26 28 24 13 9 13 7 2 4 0 4 5 2 5 4 0 1 1 1 0 2 5 5 5 3 2 4 4 5 7 4 3 8 11 4 9 12 11 8 8 10 12 10 11 17 15 14 17 15 15 15 14 14 15 15
18 17 16 14 15 17 21 23 21 11 1 3 4 7 10 8 12 25 31 22 10 2 4 18 21 3 0 13 16 15 22 25 22 22 26 23 13 10 9 3 2 4 2 4 5 4 3 2 1 2 4 3 1 3 4 4 5 6 6 6 6 7 9 8 5 6 9 8 12 13 12 12 13 15 14 13 15 18 13 12 14 15 16 15 15 15 15 16
18 17 15 13 13 16 18 21 23 16 5 5 6 8 10 7 4 12 29 25 12 5 3 10 13 3 5 15 15 20 24 19 15 20 28 26 14 7 7 3 1 2 2 2 4 5 2 2 3 6 6 5 5 3 4 6 7 9 8 8 9 9 9 8 6 3 5 9 12 11 14 15 16 17 14 13 17 17 14 13 13 14 15 15 14 14 14 16
17 16 14 12 12 13 16 19 21 20 13 6 4 5 7 7 4 5 15 15 8 6 3 4 6 2 8 12 15 24 25 16 13 20 31 29 13 5 7 4 3 6 3 1 5 4 1 6 7 6 5 6 7 7 8 9 9 11 10 10 9 9 9 6 6 4 3 5 7 9 19 20 17 16 13 14 19 19 16 15 14 14 14 14 15 15 16 15
17 16 14 12 10 11 14 15 18 19 16 14 11 8 5 4 4 3 7 5 3 3 1 4 4 3 8 9 12 20 14 11 17 22 32 28 11 4 6 4 6 8 4 1 2 1 3 9 8 5 6 6 6 5 5 8 9 10 9 9 8 7 9 5 6 5 1 4 4 10 22 20 16 16 13 16 19 18 16 15 15 15 14 13 15 16 16 13
17 15 14 12 8 8 11 12 15 16 15 18 19 12 5 2 1 1 4 2 2 3 2 7 4 4 10 6 11 18 7 8 18 22 31 28 12 7 5 6 9 8 4 1 4 5 8 9 7 7 5 3 3 2 5 9 8 7 6 7 7 6 7 5 7 6 3 6 9 16 21 15 14 16 15 17 16 14 14 15 14 15 15 14 15 15 15 15
17 14 14 13 7 6 9 10 12 15 19 21 17 10 4 2 1 3 1 2 3 3 4 8 8 10 15 10 15 20 7 9 13 16 27 21 10 7 6 9 12 10 8 7 7 8 9 6 7 7 3 1 7 7 8 10 7 5 4 5 6 4 3 5 6 6 6 5 11 20 19 10 10 13 14 15 13 12 14 15 16 16 15 15 15 14 15 17
17 14 14 13 8 4 5 8 10 13 19 19 14 10 6 3 1 3 1 2 1 5 7 8 5 8 13 12 16 14 3 6 9 14 22 16 8 6 4 7 9 11 9 11 14 12 9 7 6 2 2 5 10 9 8 7 6 8 7 5 5 4 3 5 5 4 6 6 6 14 15 9 9 11 12 10 11 14 15 16 18 17 16 15 15 16 16 16
17 15 15 14 9 4 3 7 10 10 10 11 11 11 9 4 0 3 2 0 2 7 10 9 6 11 16 17 18 9 3 6 10 13 17 14 9 4 2 4 4 8 7 10 15 12 10 8 5 4 8 8 11 9 9 4 5 8 8 7 3 2 4 5 4 5 7 6 2 3 7 7 9 12 12 9 12 16 15 18 20 18 17 17 16 17 16 16
18 16 15 16 11 6 3 4 10 10 4 5 9 12 8 5 1 2 1 1 4 6 11 11 8 15 20 18 19 11 2 7 12 15 21 18 8 2 2 3 2 6 3 4 9 5 7 8 4 7 10 10 10 8 9 8 4 7 5 5 3 0 4 5 5 4 5 6 2 3 5 8 7 11 12 10 14 17 17 19 19 17 17 17 16 15 16 16
18 18 16 16 14 10 4 2 9 9 3 5 12 13 7 4 2 2 2 1 5 6 9 9 7 13 17 16 18 10 2 8 13 16 24 20 9 3 5 7 3 5 1 2 6 4 8 11 11 11 9 9 8 6 9 8 4 6 4 3 2 2 5 4 5 5 3 5 6 7 5 8 7 9 11 11 15 18 19 19 18 17 17 17 17 16 17 16
16 18 18 17 16 14 6 4 8 7 7 12 16 11 5 2 3 3 1 3 4 5 4 6 7 11 15 16 14 8 2 8 8 13 21 19 12 4 8 12 7 11 8 1 8 4 7 13 13 10 8 8 5 5 8 7 3 4 4 3 3 4 6 5 6 6 1 3 8 9 7 6 7 7 9 11 15 17 18 18 17 18 17 17 17 17 17 16
14 17 19 18 17 16 10 5 7 10 15 17 14 8 1 3 3 2 2 2 2 4 2 6 10 10 14 14 11 11 6 6 6 9 15 16 17 8 6 7 6 12 14 11 12 5 5 8 8 9 8 5 5 6 7 6 4 2 2 1 4 4 5 5 5 5 3 5 7 8 7 4 7 8 8 10 14 14 13 13 14 15 16 16 16 16 17 15
13 16 19 20 18 18 14 7 11 17 19 15 8 2 4 3 1 1 4 2 2 4 3 5 7 9 13 12 10 13 12 9 8 9 8 11 17 14 5 1 5 6 10 14 12 6 4 3 2 7 7 5 5 4 3 4 2 1 2 3 6 5 4 4 3 2 4 7 8 9 7 4 6 7 9 8 10 10 9 10 11 13 15 15 15 15 15 15
11 14 18 20 19 21 15 10 17 20 15 9 4 4 4 1 2 3 4 2 2 5 4 5 7 10 13 10 8 12 11 11 12 12 12 10 14 17 9 3 6 5 7 10 8 7 9 8 4 2 4 7 4 3 0 1 1 2 2 3 5 3 3 4 3 2 5 7 6 8 11 11 8 5 7 7 8 9 9 10 12 13 14 14 13 13 14 14
9 12 15 18 20 22 17 14 20 19 11 4 3 3 2 1 4 3 2 3 3 5 5 5 9 11 11 8 8 12 9 8 13 11 10 9 9 13 13 11 8 5 7 6 5 7 8 10 11 4 3 11 8 1 3 4 5 3 2 2 3 2 2 3 3 3 5 6 3 3 8 10 8 6 6 8 8 9 9 9 10 11 12 12 13 13 12 12
8 10 13 17 20 23 21 18 17 14 9 2 1 2 2 3 4 2 3 3 3 4 3 4 9 10 9 7 8 11 6 4 11 11 8 8 8 9 13 17 15 7 5 6 5 6 3 6 15 11 5 12 11 4 4 5 7 5 2 1 0 2 3 3 3 2 4 6 3 4 6 7 6 5 6 7 8 8 7 7 8 9 10 10 11 12 12 12
8 8 11 17 21 23 21 18 15 9 7 6 2 3 6 5 2 1 2 3 1 3 4 5 10 9 5 6 6 9 4 5 10 10 8 10 10 10 11 16 20 11 4 4 5 6 4 5 13 12 6 10 11 6 3 3 3 4 3 3 3 3 2 3 2 3 6 6 4 3 4 6 7 5 3 3 5 6 6 6 6 8 8 8 9 11 12 13
7 7 11 19 23 23 20 17 13 7 3 6 5 5 6 4 1 1 2 4 3 5 7 5 7 6 5 5 5 7 4 4 10 8 8 11 11 11 11 12 19 14 5 4 3 3 5 5 9 7 3 7 9 6 3 3 1 3 2 2 5 3 3 3 4 3 4 5 5 3 3 6 7 7 4 2 4 6 6 6 7 8 9 8 9 11 12 12
7 6 11 22 25 22 20 15 11 6 4 4 7 6 4 1 1 0 2 5 3 6 9 5 4 5 6 5 5 9 6 3 9 8 5 8 9 12 11 7 13 14 8 4 3 2 3 4 7 7 3 8 8 5 4 3 1 1 1 3 4 3 3 3 4 3 1 4 5 3 4 6 5 5 7 5 4 6 7 8 9 11 11 11 10 10 11 12
6 3 8 24 27 22 19 13 7 8 8 6 7 5 1 0 1 1 2 4 3 5 6 3 4 5 4 3 5 12 11 5 8 7 4 5 5 11 13 7 8 12 8 4 2 3 3 3 4 7 6 9 7 3 5 10 5 2 4 3 1 1 1 1 2 2 2 4 4 2 5 4 3 2 6 7 7 9 10 11 12 13 13 12 11 11 11 12
6 1 4 21 26 20 17 10 8 11 9 7 8 5 1 0 0 2 3 3 3 3 4 4 3 4 3 3 4 10 11 7 7 6 4 5 3 7 13 8 7 11 9 5 2 3 3 2 3 5 5 7 8 3 4 11 10 5 4 1 2 2 2 2 2 3 3 3 2 2 4 2 1 1 5 7 9 10 11 11 12 13 14 12 11 12 12 12
5 1 2 17 23 16 12 9 10 9 7 5 5 4 0 2 1 3 2 1 2 2 4 3 3 3 4 4 4 6 7 7 7 4 3 5 3 5 11 8 8 12 10 6 4 1 3 1 2 6 6 5 6 7 5 7 8 4 3 2 3 3 2 3 2 1 1 3 2 3 4 2 1 1 3 5 7 9 9 10 11 13 13 12 11 11 10 11
3 2 1 18 20 9 9 17 14 7 5 5 2 2 1 2 2 2 3 2 1 1 2 2 2 4 3 3 3 4 5 5 7 4 3 6 3 3 9 8 7 11 9 5 5 2 3 2 2 5 7 3 3 7 6 6 7 5 4 5 5 2 1 2 2 2 1 1 2 2 2 3 3 1 1 3 6 7 9 9 8 10 13 12 11 11 10 11
3 2 2 19 19 3 6 16 12 4 3 4 1 2 1 2 1 1 3 4 1 2 2 2 3 4 2 2 3 3 3 4 5 4 3 6 5 3 7 9 7 9 7 4 6 5 3 2 1 3 5 5 5 5 4 5 7 6 5 5 5 3 1 0 2 1 2 1 1 0 1 3 4 2 1 2 4 6 7 8 8 10 12 12 11 11 10 11
3 2 4 18 14 8 10 9 4 2 3 2 1 1 1 1 1 2 1 2 1 1 1 2 2 3 2 2 3 2 3 2 3 4 3 4 6 4 7 9 7 6 4 3 4 3 2 1 2 3 3 3 3 2 3 3 4 6 7 5 4 3 3 2 2 1 0 1 1 1 1 2 5 3 1 0 3 5 6 7 7 9 11 11 11 10 10 11
2 2 6 17 9 7 11 6 1 4 3 0 2 1 2 1 1 1 1 1 1 0 2 2 1 1 3 2 1 1 3 2 2 3 2 3 5 3 5 9 8 5 5 4 2 1 1 1 2 2 1 0 1 1 2 1 2 3 5 6 5 3 4 3 2 2 1 1 1 1 1 3 6 4 2 1 3 4 5 6 7 8 9 10 10 10 10 11
1 2 4 17 10 3 3 4 3 2 2 0 1 0 1 2 1 2 2 2 2 1 1 2 1 1 2 2 1 2 4 2 1 3 2 3 4 2 4 8 8 6 5 3 4 2 1 2 1 0 0 1 2 2 2 1 1 2 3 5 5 4 4 3 2 2 1 1 0 2 2 2 6 5 3 0 4 5 5 6 6 7 9 10 9 8 9 10
2 2 2 15 18 9 3 1 3 4 3 2 2 2 1 1 1 2 1 2 2 1 1 2 2 2 1 1 2 3 4 2 2 1 1 3 4 2 5 8 6 6 5 3 3 3 1 2 1 1 2 2 1 1 1 1 3 2 1 3 4 4 3 2 1 1 2 2 2 3 1 3 6 6 3 2 3 4 4 5 5 6 9 9 8 7 8 9
1 2 1 6 13 10 4 2 2 4 3 3 3 1 0 2 1 1 0 1 0 0 1 2 1 1 1 2 2 2 3 3 2 2 2 4 3 2 5 6 5 7 8 7 5 1 2 2 1 1 1 0 1 1 0 3 3 2 3 4 1 2 1 0 2 2 1 3 4 6 4 1 5 6 3 2 2 3 4 4 5 6 8 9 7 6 7 8
1 2 1 0 3 4 3 3 3 2 2 1 2 2 2 2 1 1 0 1 0 0 1 2 2 1 1 2 2 1 2 3 2 2 3 4 2 3 4 2 3 9 9 7 6 2 2 2 1 1 1 3 3 4 4 4 4 5 5 4 2 2 2 4 5 3 3 3 4 5 6 7 6 5 3 4 4 4 4 4 4 6 8 8 7 6 7 10
1 2 0 1 1 1 2 2 2 3 3 1 1 2 1 2 2 2 1 1 1 0 1 1 2 2 1 2 1 1 2 3 1 1 2 3 3 4 3 2 1 6 7 5 5 2 1 1 2 2 4 6 7 8 6 5 5 6 7 7 6 4 6 8 8 6 6 6 4 1 5 8 8 5 4 5 4 4 5 4 4 6 8 7 7 7 8 10
2 3 1 2 1 1 2 3 4 5 4 3 2 2 1 3 3 1 0 1 1 0 1 1 2 2 3 3 2 0 1 2 2 2 2 2 3 3 3 0 2 4 6 5 4 2 0 0 1 1 5 7 7 6 6 5 4 5 7 10 9 8 8 10 10 10 10 10 9 6 7 11 10 8 7 5 4 4 4 4 5 7 8 7 7 8 8 10
1 2 2 2 4 4 3 2 2 3 3 2 1 1 2 3 3 1 1 1 2 1 1 2 2 3 4 4 3 2 2 3 4 4 2 1 2 1 2 1 1 4 6 4 3 3 1 1 1 1 4 4 3 3 4 4 3 5 8 10 9 7 7 8 9 9 9 10 11 10 12 12 9 6 6 5 4 4 5 5 6 7 7 7 7 7 8 10
4 4 4 4 4 2 1 2 0 1 1 0 1 3 3 4 4 2 2 1 1 1 1 2 2 2 3 4 4 4 4 4 6 5 2 3 3 2 1 2 3 5 6 4 2 3 2 1 1 1 3 2 1 3 5 4 4 6 10 11 11 7 5 6 6 8 10 8 6 6 9 9 5 5 6 5 4 5 6 7 7 7 7 8 8 8 9 10
6 5 3 3 3 1 0 1 0 1 1 1 2 3 3 3 3 3 2 1 1 1 1 2 2 1 2 3 3 2 2 3 5 5 3 4 5 5 5 4 4 4 3 2 3 2 2 1 1 2 3 2 2 5 6 6 5 5 6 9 13 11 8 7 7 9 12 9 6 6 7 4 3 5 6 6 5 6 7 7 6 8 9 8 8 9 9 9
Wind_Direction
8 6 5 2 1 360 358 355 351 349 348 347 347 347 347 347 347 345 346 345 343 344 342 341 341 339 338 336 335 334 334 337 337 336 355 355 339 333 335 335 334 339 334 321 316 310 309 284 285 306 254 199 208 205 178 186 184 179 200 217 221 218 214 199 191 187 211 184 140 118 285 83 87 114 154 170 173 101 161 205 55 109 130 79 14 350 104 149
3 2 360 357 357 355 355 353 351 350 346 344 343 342 343 344 344 342 343 343 340 341 341 341 341 340 337 336 335 334 337 336 325 340 353 345 338 340 341 340 346 344 333 320 315 307 297 292 322 315 248 200 194 182 175 182 190 198 203 213 222 217 202 187 195 186 155 191 145 123 306 44 80 86 160 164 79 80 188 138 132 118 166 151 96 67 136 154
0 358 356 354 354 352 351 350 348 347 346 344 341 339 338 339 339 337 339 340 338 338 341 342 341 338 335 337 336 337 339 331 335 354 346 345 343 345 347 349 351 343 330 316 307 289 273 290 311 298 245 211 197 185 187 176 188 208 209 217 222 202 177 151 201 199 136 224 150 132 311 47 74 357 317 18 61 73 46 54 89 28 0 116 105 113 151 162
358 355 354 353 352 351 350 347 345 343 344 344 340 338 337 336 334 332 334 335 336 338 341 343 341 337 337 339 339 342 338 284 16 354 343 348 346 344 350 354 350 345 329 305 298 288 256 259 271 268 241 219 191 189 195 176 182 197 207 231 203 173 170 124 166 201 10 315 145 140 302 55 54 315 8 7 37 69 52 42 30 11 346 13 115 149 162 168
357 355 355 355 353 351 348 347 346 340 341 343 340 338 336 335 333 329 329 330 335 340 342 343 340 336 341 343 346 352 319 212 17 350 342 349 345 339 346 350 349 353 335 291 279 292 237 226 233 221 228 217 186 193 193 175 187 187 192 266 96 164 174 114 91 79 17 296 110 88 322 36 14 3 36 7 9 40 43 30 2 342 330 346 122 163 169 175
357 357 356 355 352 351 348 348 347 341 341 344 340 338 336 334 330 327 326 328 335 342 344 342 338 339 345 347 1 12 350 124 358 341 341 347 342 333 335 338 346 359 350 257 220 233 209 221 220 200 213 211 193 195 172 158 214 214 173 74 51 160 154 110 97 94 88 162 80 356 328 17 23 68 58 19 13 17 21 20 355 341 344 358 86 148 166 179
1 360 357 355 351 351 350 348 347 343 344 346 340 336 335 331 329 328 325 329 336 344 346 340 336 340 349 356 13 31 32 11 339 336 340 344 340 325 323 325 339 2 1 5 62 213 24 256 186 170 200 195 197 207 101 140 211 232 155 111 69 59 94 103 104 99 79 95 87 3 314 2 18 3 56 26 9 5 7 26 21 6 19 35 62 84 104 203
4 2 359 356 353 352 351 351 349 347 348 345 338 335 334 331 330 328 325 332 337 344 345 338 336 338 350 6 8 24 35 354 334 339 340 342 341 323 325 323 328 354 354 1 14 255 280 43 137 202 193 149 141 207 106 162 186 210 133 115 116 79 90 109 104 98 82 77 98 74 321 13 16 340 59 25 359 350 353 26 40 36 41 43 44 43 33 5
6 4 2 360 357 356 357 356 353 350 347 343 341 339 337 335 334 332 333 336 338 342 340 335 336 338 353 13 336 356 15 346 339 345 343 343 343 333 349 336 313 333 340 354 355 310 303 33 97 254 174 99 96 114 257 208 175 152 125 116 115 89 79 104 107 88 84 67 95 96 26 20 5 326 73 17 351 343 2 34 40 41 39 39 42 38 37 23
8 5 4 4 2 4 4 359 355 351 349 349 347 344 343 344 344 342 341 339 338 338 336 337 337 341 2 16 343 18 3 347 347 351 348 345 341 340 359 3 308 316 327 339 336 28 51 2 15 298 264 107 129 59 330 261 99 96 118 105 96 93 62 50 108 100 97 96 93 88 48 8 346 5 43 350 341 344 31 47 44 46 35 33 46 38 33 27
9 6 4 6 7 6 3 359 357 356 357 354 350 352 355 356 354 349 344 342 341 341 341 340 339 345 4 20 18 23 354 349 349 352 354 347 342 340 339 6 88 298 310 318 318 29 56 350 278 248 236 126 140 96 58 356 50 107 138 121 106 107 62 26 65 105 148 163 122 101 65 14 3 25 343 324 325 333 55 56 51 57 43 34 46 43 35 19
7 7 3 6 9 6 2 3 5 5 1 356 359 7 10 9 2 355 357 356 351 354 356 345 340 343 343 20 34 6 350 350 353 355 355 349 344 338 331 348 130 253 292 295 309 5 38 167 225 221 13 156 162 119 87 14 337 147 168 142 128 128 61 16 1 1 232 89 103 159 122 36 33 11 320 323 324 337 57 55 48 55 49 45 47 49 44 25
5 6 3 5 9 7 6 10 13 9 3 6 17 25 24 20 14 12 17 17 13 5 358 356 352 342 334 31 20 354 351 353 357 358 355 351 346 339 350 344 230 196 274 280 292 351 7 121 245 314 10 249 142 96 109 63 260 166 178 152 139 137 53 9 343 307 158 48 3 179 153 59 50 357 327 339 335 1 51 50 47 52 51 51 50 53 53 39
5 5 3 4 7 8 12 17 17 13 15 32 41 37 31 27 24 20 18 25 28 20 12 5 360 341 336 39 355 350 352 356 360 358 354 352 347 347 3 354 267 206 255 274 284 354 3 16 229 108 17 315 37 84 139 108 142 154 146 158 148 137 69 14 2 351 89 56 275 192 132 75 56 5 343 346 341 22 53 49 48 51 49 50 49 51 55 47
4 4 4 3 5 12 18 20 19 21 40 55 51 45 39 36 31 19 6 13 22 25 25 13 0 343 11 59 350 352 356 358 357 354 355 352 342 338 346 344 309 250 259 275 266 24 14 19 148 30 5 325 256 177 134 114 109 132 160 159 141 126 110 43 24 13 26 57 6 196 135 93 61 14 354 348 352 40 55 48 45 46 44 46 46 45 47 42
3 5 6 2 7 20 22 20 22 30 67 70 55 47 42 41 37 30 14 358 348 18 27 19 357 335 40 20 342 351 354 347 344 348 356 355 337 318 329 332 331 297 275 15 109 75 19 26 77 349 349 220 212 158 126 124 128 104 199 143 126 133 128 105 47 13 348 38 41 62 108 94 58 22 8 355 14 51 52 43 41 41 40 40 41 40 39 34
3 4 6 4 11 25 23 20 24 30 88 77 36 25 24 35 40 39 35 33 25 13 33 19 355 305 98 2 342 348 341 334 341 348 354 356 346 330 330 332 2 329 226 76 52 34 3 9 358 307 65 100 210 177 148 135 135 135 109 105 78 109 117 109 102 2 349 64 77 73 88 81 56 39 28 19 44 59 51 40 40 38 38 37 37 37 35 32
2 2 10 12 15 25 25 21 23 26 297 267 313 338 346 354 30 37 36 39 40 10 48 15 1 348 318 344 339 332 325 327 339 346 352 357 354 346 343 341 333 312 183 93 33 2 359 6 350 58 69 78 92 223 175 127 125 127 117 120 98 85 87 76 82 349 351 67 82 78 79 63 54 46 39 40 57 63 53 43 40 36 38 36 34 34 30 30
4 8 16 17 17 25 27 22 21 25 7 282 288 318 341 331 306 29 29 30 39 41 35 359 4 49 302 322 322 324 328 330 340 350 357 359 352 345 0 7 358 23 148 137 40 15 14 75 59 68 62 54 44 22 104 98 95 104 99 105 109 97 81 70 73 359 343 64 65 70 73 60 52 46 39 45 58 59 49 44 37 31 34 31 31 32 26 27
7 17 19 15 18 22 25 25 21 25 31 16 324 335 5 358 325 16 13 16 48 50 33 337 351 344 315 313 318 338 345 346 353 0 2 359 344 332 1 7 83 68 50 71 61 26 19 80 70 63 35 13 8 17 76 99 98 102 100 93 98 99 86 70 60 20 306 72 50 63 74 64 55 49 37 43 54 51 45 46 42 34 34 29 28 27 23 24
14 22 21 13 14 19 24 27 24 29 43 52 55 59 46 5 10 13 341 352 66 42 17 332 310 287 325 309 324 347 346 340 354 3 3 360 353 353 354 7 87 75 35 333 86 102 91 79 64 22 351 338 340 350 64 99 108 105 108 106 97 95 92 72 44 21 297 103 73 75 75 64 56 52 40 43 52 49 43 47 46 40 40 33 29 26 21 18
21 23 21 12 8 17 23 26 27 33 46 52 61 75 81 29 63 250 298 308 15 358 336 335 329 337 339 333 348 347 330 342 355 2 0 358 10 25 12 52 78 73 48 138 130 98 82 71 35 3 335 326 18 30 74 79 92 103 115 118 105 102 109 93 53 32 36 103 104 87 77 67 60 58 50 49 52 50 45 47 47 42 41 35 29 26 20 16
24 21 19 13 9 13 21 29 29 35 47 53 63 73 65 21 183 191 251 278 325 356 4 1 1 351 354 11 355 344 357 12 354 356 355 354 11 10 11 59 74 70 56 77 94 88 84 54 360 348 310 44 62 62 81 80 65 68 95 112 113 114 118 103 78 51 46 82 109 94 83 71 61 56 54 53 50 48 43 43 46 42 41 38 32 29 24 20
25 23 23 17 16 13 17 26 25 37 49 54 59 45 18 356 186 175 222 252 321 354 0 7 359 352 353 346 342 340 350 8 354 352 353 356 358 338 354 37 62 70 57 67 75 76 68 24 335 355 70 74 73 55 54 82 72 53 49 62 94 86 49 81 105 105 80 69 92 95 86 66 52 50 50 46 42 43 35 34 38 36 35 36 34 33 28 25
27 29 30 25 26 26 16 22 21 27 40 49 43 18 359 354 248 200 243 202 28 341 346 356 357 2 348 334 346 340 254 7 9 353 353 0 350 323 9 353 43 65 44 57 70 70 47 2 317 67 73 66 75 56 13 15 97 73 40 26 41 67 71 97 135 163 131 112 28 66 92 74 52 49 45 37 40 40 34 34 32 28 29 30 30 30 27 26
33 35 34 32 32 30 32 23 13 8 23 43 6 348 348 351 318 181 245 30 39 349 344 352 350 355 351 344 341 316 248 11 349 355 4 5 352 289 31 355 40 59 20 47 71 76 32 4 349 55 69 66 70 67 14 354 91 89 33 9 354 33 103 122 169 181 138 123 55 4 113 108 70 47 38 34 44 41 35 35 31 26 28 27 29 27 25 25
39 36 33 35 33 35 59 12 5 10 26 341 326 328 334 319 254 200 260 31 45 354 337 346 336 345 351 344 334 328 32 323 322 3 4 359 351 283 40 40 46 49 311 226 75 43 3 19 28 33 52 64 60 55 10 344 60 77 1 348 3 38 74 92 133 121 102 120 86 31 61 103 75 41 32 29 41 40 33 31 27 26 26 25 28 26 25 26
38 34 33 31 27 32 46 7 4 8 342 319 313 318 319 288 216 216 314 62 26 340 335 341 331 344 342 330 343 31 42 308 339 358 341 357 13 332 47 41 37 46 22 52 90 57 7 31 30 18 38 57 36 8 349 331 51 67 345 2 55 52 64 70 96 100 65 131 94 29 17 86 67 28 24 29 38 37 30 28 25 24 25 24 25 23 23 24
33 31 30 26 24 24 22 8 356 343 334 324 316 323 301 168 182 228 38 78 329 330 340 342 340 344 335 328 2 32 9 359 27 329 322 14 27 15 58 24 12 50 42 57 82 75 35 40 23 22 34 29 350 347 346 346 36 63 317 71 92 62 66 68 80 102 67 70 71 9 348 96 74 26 16 27 33 28 23 28 26 24 25 23 22 21 21 21
30 29 26 24 23 14 9 9 349 339 337 335 332 13 141 148 188 29 36 35 343 343 313 343 348 333 336 348 11 7 5 19 7 335 345 23 26 28 64 292 338 45 62 64 75 92 79 65 33 37 19 321 303 318 327 335 13 179 244 123 102 66 64 73 52 80 82 66 48 18 17 94 94 40 23 29 26 16 17 23 23 24 25 24 23 21 19 19
25 24 22 22 21 12 7 354 343 341 342 353 30 126 147 69 36 86 53 9 321 339 333 346 346 340 349 4 10 352 360 14 1 7 16 14 27 28 28 7 348 16 62 60 70 77 61 49 49 46 358 352 318 265 244 322 340 162 194 127 110 87 83 95 64 39 83 82 56 43 54 67 81 63 31 33 28 19 22 21 18 21 23 24 22 21 20 18
20 18 18 20 17 12 4 342 341 346 345 1 71 103 165 43 43 63 350 328 325 342 353 339 334 341 339 341 9 354 347 4 3 13 17 12 37 37 35 29 358 9 47 31 36 46 53 49 29 7 11 11 353 311 82 38 18 48 140 142 134 129 109 92 64 47 78 88 66 28 56 65 76 76 39 30 30 27 27 24 19 19 21 22 20 20 21 19
20 14 13 15 12 8 1 347 346 354 358 17 142 44 64 89 51 19 300 334 11 346 331 313 318 324 326 343 9 350 333 13 4 1 7 17 41 44 42 31 12 13 30 15 24 22 78 68 19 10 14 5 4 30 55 32 21 27 33 344 161 123 110 100 75 77 89 88 77 38 70 101 101 66 31 28 35 30 23 23 21 18 18 20 20 20 21 21
16 12 10 12 11 6 360 355 355 358 20 52 87 40 59 72 40 1 308 318 309 311 311 317 317 318 353 32 11 345 357 51 11 358 8 25 35 23 22 25 17 12 3 28 35 9 50 65 11 8 355 350 13 34 358 322 11 35 5 4 59 54 57 100 99 100 103 100 98 54 63 116 117 79 30 24 38 27 16 19 21 23 25 23 23 23 22 22
4 10 13 11 10 7 3 0 2 359 25 58 62 51 63 76 283 276 345 314 288 316 315 315 321 329 17 24 8 7 18 28 6 7 29 36 37 19 6 12 15 12 359 22 26 357 53 57 357 346 306 338 6 14 326 265 9 54 328 1 56 14 345 79 73 54 96 106 90 59 59 97 117 109 87 59 37 25 18 22 25 28 29 26 26 25 23 21
353 9 17 13 9 6 5 2 7 36 79 77 69 57 54 71 277 207 357 328 316 320 311 308 341 358 9 345 351 8 3 1 3 5 40 43 39 22 7 0 14 18 13 20 33 354 59 66 351 334 352 14 6 345 8 25 319 39 42 38 41 323 309 82 84 35 63 106 77 64 100 110 153 126 68 47 39 28 21 24 25 25 24 24 26 25 23 20
1 19 23 13 6 3 7 9 32 77 81 68 74 74 43 277 299 268 333 328 300 305 316 358 18 354 353 330 347 357 348 345 1 7 24 21 27 17 5 352 8 17 11 4 53 21 20 84 26 358 4 8 346 276 30 35 13 7 62 42 347 231 280 34 88 79 77 96 77 68 101 112 199 164 38 24 25 21 17 18 19 20 20 19 20 20 20 18
0 58 40 11 3 1 7 24 77 83 77 64 77 96 179 277 282 266 311 322 275 306 357 44 19 349 357 353 349 348 345 352 2 9 20 10 29 20 8 355 347 6 4 333 357 26 353 72 72 18 351 339 340 327 38 34 31 61 88 355 313 97 82 28 64 89 88 101 104 113 118 123 214 8 2 6 16 15 13 13 13 16 16 14 13 13 14 13
353 122 51 1 1 8 19 58 84 70 69 73 80 106 221 307 274 244 252 297 269 312 24 43 7 11 23 7 355 347 355 13 6 358 20 8 16 32 19 1 328 350 359 349 16 19 318 31 88 14 351 313 347 19 29 18 23 61 96 12 15 40 40 44 44 350 104 123 139 157 176 178 109 18 335 360 10 12 13 11 12 13 10 9 7 6 9 9
14 117 24 354 360 20 56 68 67 44 61 77 65 115 125 275 285 256 226 231 289 336 37 49 13 18 13 358 15 3 359 18 14 19 38 9 4 53 26 8 333 340 344 357 30 15 310 3 79 5 358 346 36 34 21 8 12 20 27 24 27 13 313 75 67 6 356 134 145 156 187 148 122 198 299 1 5 13 16 8 10 11 7 7 3 2 8 6
29 103 341 350 357 27 75 58 53 26 71 79 72 114 139 240 293 352 205 213 271 6 35 91 73 38 8 356 26 14 354 14 20 28 46 21 26 52 17 1 338 330 330 351 18 16 355 360 35 15 20 51 58 32 6 4 11 26 37 21 12 8 302 96 94 63 341 352 110 190 273 135 141 181 232 14 6 14 15 7 7 8 6 3 358 0 6 2
36 102 334 347 6 82 78 57 40 32 91 78 59 143 237 246 288 8 113 203 242 355 25 85 82 43 41 23 11 3 353 7 14 16 38 23 19 19 353 345 333 323 343 3 358 10 15 350 45 45 37 43 32 28 39 349 346 41 54 26 6 13 354 358 94 132 171 63 99 247 302 139 146 150 194 280 15 17 15 9 3 2 3 359 355 358 3 359
38 133 349 353 8 96 73 69 52 36 75 8 327 230 262 314 248 344 35 353 316 95 44 58 81 27 46 23 326 354 359 349 359 4 4 356 12 26 341 339 345 353 8 7 345 100 116 359 35 68 78 171 228 153 94 325 300 54 48 29 29 30 14 17 30 26 188 155 155 219 257 161 160 165 218 239 24 16 10 6 0 357 357 354 352 355 357 354
45 173 354 5 13 153 91 86 137 86 101 236 8 78 313 327 348 32 29 350 357 64 71 56 32 358 32 0 354 17 356 350 10 355 352 347 3 50 4 351 5 16 19 7 332 321 73 8 344 220 84 132 180 194 166 161 6 36 43 33 37 49 58 70 46 7 234 199 177 246 271 133 160 185 217 27 26 10 0 357 353 350 351 350 347 349 353 349
61 161 296 12 32 65 87 74 134 127 136 131 78 51 355 34 54 12 17 22 8 330 70 56 38 30 21 352 33 23 357 11 18 340 343 334 332 29 6 355 13 19 15 17 323 301 74 39 322 12 53 67 58 15 60 359 353 14 30 9 26 55 65 91 112 283 232 161 159 228 253 98 154 192 223 21 16 350 342 341 340 343 346 344 338 339 345 345
80 59 263 5 30 52 65 10 68 113 141 138 110 99 257 109 101 284 138 78 41 276 46 46 28 25 27 19 29 12 346 350 339 323 340 331 328 5 343 343 26 14 359 12 13 4 120 79 24 56 78 31 4 9 354 337 319 280 297 323 40 102 51 167 178 244 197 145 204 234 246 239 196 203 234 333 328 313 319 321 322 332 337 334 327 325 333 342
120 72 47 312 33 51 65 36 35 80 120 153 129 143 165 138 127 185 183 55 67 97 52 59 50 15 55 45 28 347 336 338 331 337 339 329 314 316 314 315 33 4 350 359 7 15 142 113 80 99 251 265 285 275 273 295 275 254 275 287 230 194 211 203 212 222 152 161 238 228 216 239 237 209 232 283 284 285 293 293 303 320 324 322 317 313 323 339
45 135 183 312 72 76 66 70 83 82 71 56 95 103 112 151 155 151 142 104 69 341 229 114 70 35 85 106 88 328 322 332 343 291 306 328 324 320 333 143 106 6 3 3 358 15 100 129 168 203 271 271 268 272 269 262 256 250 252 260 258 234 207 213 226 219 195 216 263 174 187 229 241 231 247 264 263 270 277 278 292 307 310 314 315 311 321 334
55 117 88 351 73 116 68 87 115 105 79 67 91 109 137 165 170 169 85 136 132 354 272 209 158 128 136 150 153 255 266 293 329 292 257 324 323 311 327 137 140 32 23 23 7 3 124 118 147 222 285 277 261 257 242 227 239 250 248 255 260 242 220 224 231 223 218 237 264 276 259 256 256 254 255 251 246 262 266 262 279 298 307 313 309 305 314 325
128 139 127 76 89 94 79 88 116 107 80 41 70 127 152 167 172 177 218 215 184 163 213 219 173 144 145 158 180 244 250 256 284 281 227 253 295 293 315 316 21 11 15 31 2 312 285 54 64 308 291 285 268 259 240 220 223 246 253 252 249 244 234 231 234 228 226 242 258 266 270 268 259 239 230 226 231 249 254 262 282 299 309 305 294 292 303 315
90 108 135 118 90 69 103 113 103 109 110 304 171 152 177 198 189 166 168 227 262 231 208 180 163 154 148 157 203 247 256 249 256 264 245 251 282 297 289 320 349 343 356 25 348 317 341 49 57 335 296 289 288 278 274 277 264 256 258 245 225 215 212 212 214 206 204 216 229 238 255 261 233 179 190 209 226 250 264 275 289 301 304 296 285 284 294 306
100 94 107 97 82 339 284 116 140 154 124 93 130 154 193 202 183 172 160 155 238 266 246 148 156 196 202 211 232 233 235 246 257 280 286 263 271 274 266 287 319 309 307 347 346 340 6 4 3 338 302 291 304 295 286 288 274 258 258 228 204 198 209 214 211 205 203 202 198 214 241 247 161 168 202 217 231 255 271 280 290 299 298 289 277 274 283 298